CAPE
0 0 0 0 0 0 0 0 0 0 0 0 0 0 1 0 32 29 71 119 244 257 371 386 567 576 961 1076 1080 966 827 952 926 1120 727 530 694 783 1402 1168 721 1029 1269 922 714 1377 1590 1227 1085 1364 1378 1507 1721 1736 1708 1673 1729 1918 1906 1802 1879 1721 1692 1956 1850 1916 1991 2010 1950 1916 1985 2090 2022 1956 1908 1870 1755 1683 1667 1649 1781 1821 1763 1770 1489 1448 1317 1314 1116 1073 1052 1125 1178 1132 1086 907 972
0 0 0 0 0 0 0 0 0 0 0 0 0 0 10 38 31 33 67 167 234 243 334 552 568 523 500 690 642 613 950 860 683 658 516 572 563 596 643 1076 1191 1372 1345 1451 1831 1626 1265 1345 1255 1480 1438 1427 1566 1687 1668 1656 1683 1738 1907 1923 1910 1997 1986 2004 1954 1910 1948 1958 1875 1890 1874 1942 1902 1903 1855 1900 1966 1889 1876 1848 1760 1778 1804 1800 1635 1480 1642 1583 1514 1178 1178 1118 1101 1272 1202 1230 1247
0 0 0 0 0 0 0 0 0 0 0 0 0 0 0 2 56 167 176 270 296 352 434 536 442 660 772 512 864 788 877 940 737 1088 817 641 497 530 1041 1219 1234 1221 1418 1394 1498 1156 932 1412 1261 1368 1448 1436 1561 1447 1548 1537 1526 1602 1644 1682 1766 1799 1914 1823 1747 1744 1785 1836 1862 1822 1875 1830 1804 1806 1814 1837 1938 1899 1911 1787 1771 1776 1685 1698 1717 1625 1684 1499 1234 1078 1311 1269 1219 1174 1202 1451 1426
0 0 0 0 0 0 0 0 0 0 0 0 0 0 1 9 147 288 379 297 458 442 475 468 660 286 938 786 963 555 842 1150 563 667 581 459 359 589 1032 1260 1375 1660 1533 1382 1199 1400 1000 1244 1129 1268 1354 1294 1390 1514 1535 1500 1559 1583 1520 1526 1484 1674 1745 1656 1731 1678 1681 1719 1764 1786 1839 1837 1862 1875 1902 1928 1897 1891 1867 1899 1848 1792 1808 1690 1704 1607 1669 1624 1204 1254 1390 1339 1252 1294 1257 1335 1495
0 0 0 0 0 0 0 0 0 0 0 0 0 0 0 56 316 326 312 346 399 487 445 694 565 546 581 788 738 888 663 868 540 483 522 417 531 638 1163 1255 1239 1298 1352 766 1132 792 1377 1230 1200 1171 1271 1215 1269 1366 1410 1398 1424 1478 1505 1465 1322 1378 1717 1705 1469 1636 1675 1749 1805 1848 1854 1890 1874 1912 1884 1909 1948 2025 1959 1861 1880 1921 1844 1809 1683 1678 1721 1557 1419 1516 1498 1422 1443 1336 1443 1504 1604
0 0 0 0 0 0 0 0 0 0 0 0 0 0 3 105 378 350 389 589 585 531 579 570 694 755 697 621 891 630 514 690 520 440 362 389 560 639 1249 1115 1147 1008 1012 1096 1447 1219 1375 1247 1192 1281 1194 1164 1314 1398 1408 1319 1546 1597 1637 1728 1708 1668 1670 1668 1631 1635 1663 1720 1739 1788 1840 1794 1820 1862 1808 1777 1738 1748 1811 1836 1741 1767 1903 1813 1782 1677 1644 1560 1546 1309 1389 1397 1248 1405 1432 1472 1496
0 0 0 0 0 0 0 0 0 0 0 0 0 0 2 308 520 628 687 721 451 672 358 750 702 774 844 682 499 518 574 647 500 375 525 558 689 1071 1330 1171 774 796 897 1413 857 921 1629 1159 1014 1246 1224 1099 1040 1285 1241 1424 1610 1648 1629 1576 1665 1690 1668 1648 1650 1720 1727 1765 1723 1730 1727 1781 1723 1682 1751 1784 1775 1818 1719 1771 1756 1681 1779 1717 1614 1609 1586 1517 1411 1425 1469 1367 1359 1428 1493 1565 1445
0 0 0 0 0 0 0 0 0 0 0 0 0 4 186 515 675 706 851 801 935 988 759 768 772 987 800 624 528 517 452 425 465 392 665 933 878 940 1129 1051 792 890 1360 1494 957 915 1200 1245 1252 1310 1366 1256 1297 1401 1496 1578 1655 1616 1617 1575 1654 1619 1665 1637 1699 1688 1740 1755 1799 1728 1757 1729 1673 1673 1701 1710 1742 1670 1651 1579 1641 1789 1725 1655 1633 1639 1530 1499 1494 1553 1343 1134 1166 1249 1528 1456 1521
0 0 0 0 0 0 0 0 0 0 0 0 32 630 526 485 655 834 977 856 602 734 866 796 476 688 737 951 844 626 370 458 450 490 664 1024 1137 1063 1170 946 877 1210 1534 1421 1577 1292 1594 1375 1360 1372 1466 1446 1460 1471 1505 1595 1646 1669 1576 1575 1554 1590 1666 1670 1720 1712 1734 1755 1809 1762 1722 1742 1720 1679 1665 1699 1716 1629 1645 1621 1521 1627 1575 1670 1615 1647 1600 1605 1579 1504 1442 1180 859 1212 1419 1431 1394
0 0 0 0 0 0 0 0 0 0 0 4 44 320 480 492 587 499 743 690 950 802 863 786 670 812 699 712 517 497 496 566 580 864 1105 861 1340 1339 1281 1205 1252 1551 1391 1500 1746 1738 1556 1394 1459 1436 1467 1495 1492 1538 1633 1676 1597 1678 1662 1536 1549 1574 1567 1761 1812 1735 1706 1765 1722 1750 1749 1744 1718 1717 1689 1671 1685 1731 1724 1648 1657 1644 1614 1596 1704 1589 1525 1370 1391 1416 1358 1324 1346 1361 1333 1476 1489
0 0 0 0 0 0 0 0 0 0 0 5 178 342 451 691 449 845 795 893 691 949 966 621 999 849 497 775 466 443 334 724 722 565 645 1093 1390 1402 1447 1598 1552 1534 1396 1650 1769 1878 1897 1702 1550 1545 1607 1539 1587 1683 1719 1762 1765 1700 1619 1554 1559 1492 1770 1862 1850 1799 1736 1664 1748 1796 1813 1819 1836 1816 1797 1754 1675 1668 1744 1724 1697 1686 1606 1617 1650 1689 1573 1456 1217 1250 1143 1142 1382 1494 1558 1560 1558
0 0 0 0 0 0 0 0 0 0 0 43 132 471 578 844 950 961 954 672 721 888 873 495 864 816 789 881 591 333 461 620 657 839 1086 1156 1192 1405 1333 1349 1531 1327 1656 1485 1354 1617 1767 1931 1578 1602 1728 1790 1601 1639 1821 1836 1770 1691 1668 1698 1739 1756 1809 1845 1916 1919 1820 1858 1888 1864 1786 1878 1810 1843 1779 1650 1689 1682 1702 1687 1692 1734 1686 1592 1556 1613 1587 1559 1376 1424 1117 1275 1242 1202 1469 1589 1578
0 0 0 0 0 0 0 0 0 0 0 20 148 782 721 790 960 855 621 602 685 808 951 580 841 831 710 720 671 664 636 639 596 980 1169 1191 1215 1064 888 897 897 1054 1018 1138 1163 1267 1454 1689 1375 1372 1528 1714 1952 1957 1868 1924 1698 1899 1826 1829 1783 1766 1942 1954 1931 1946 1984 1926 1949 1937 1867 1959 1806 1803 1779 1747 1772 1753 1760 1693 1685 1641 1696 1702 1669 1682 1486 1618 1597 1536 1428 1240 1398 1641 1698 1515 1514
0 0 0 0 0 0 0 0 0 0 1 351 676 900 709 822 564 681 550 822 806 844 681 789 808 901 861 651 721 528 763 637 703 1002 1246 1320 1109 890 786 752 841 1148 1365 1325 1429 1152 1316 1480 1756 2043 2125 2215 2318 2097 1985 1852 1716 2122 2102 2116 2057 1977 1991 2223 2195 2104 2114 2000 2079 2064 2155 2047 1979 1830 1842 1829 1720 1691 1593 1683 1709 1871 1877 1767 1951 2051 2136 2040 1891 1827 1806 1612 1530 1611 1862 1897 1879
0 0 0 0 0 0 0 0 1 0 34 194 904 771 712 660 569 607 582 702 773 715 730 819 827 647 415 527 442 688 885 750 988 1179 1209 1102 891 780 856 1023 985 1172 1278 1258 1123 1204 1282 1845 1947 2030 2251 2261 2250 2305 2246 2286 2147 2045 2097 1952 2032 2221 2223 2173 2296 2336 2433 2496 2363 2270 2215 2056 1886 1506 1452 1645 1630 1811 1972 1796 2142 2167 2135 2213 2165 2185 2109 2320 2300 2393 2289 2210 2130 2014 1998 1995 1946
0 0 0 0 0 0 0 0 0 0 227 336 805 780 713 728 600 549 797 944 1031 738 903 1151 779 947 616 437 526 839 921 1061 1148 1183 1023 914 1021 918 1010 1129 1186 1208 1150 1085 1257 1735 2021 2105 1997 1927 1900 2145 2409 2151 2223 2423 2301 2157 2198 2115 2060 2082 2085 2159 2090 2166 2163 2192 2061 2342 2226 1833 2003 1856 1373 1620 1911 1885 2065 2099 1834 1526 1544 1631 1582 1480 1624 1811 1836 1850 1943 2121 2251 2432 2238 2134 1993
0 0 0 0 0 0 3 0 0 2 193 653 725 808 704 837 718 752 849 886 835 793 708 699 984 1090 1075 648 786 1070 1167 1169 1130 1028 979 1071 1066 1007 1054 1186 1122 1146 1568 1859 1943 1840 1941 2169 2178 1942 2171 2281 2398 2399 2193 2023 2017 1885 2089 1890 1827 1811 1960 1928 2012 2033 2152 1838 1890 2146 2161 2471 2444 2434 2307 2407 2204 2031 1701 1574 1570 1306 1099 1116 992 996 995 1137 1227 1258 1277 1452 1519 1459 1758 1789 2263
0 0 0 0 0 0 10 0 6 161 31 676 794 823 790 679 621 943 1083 937 809 749 618 871 812 759 451 571 1053 1156 1246 1225 1189 1144 1126 1106 1073 1082 1007 1047 1087 1416 1524 1580 1834 1924 1902 1993 2140 2141 1993 2337 2325 2297 2098 2081 1999 1860 2210 2176 2019 2194 1771 2041 2267 2392 2071 2368 1946 2332 2543 2156 1975 2130 2444 1993 1961 1555 1034 1144 1218 1220 980 1159 1062 922 999 988 1112 1249 1316 1269 1359 1631 1371 1806 1830
0 0 0 0 0 228 156 337 236 132 345 700 656 643 685 755 644 943 1057 982 1030 847 870 833 377 383 495 515 1029 1205 1281 1158 1060 1000 1131 1173 997 967 1138 1130 1440 1536 1408 1418 1715 1930 1852 1857 2073 2011 2213 2339 2188 2222 2196 2137 1963 2006 1972 1983 1999 1749 1966 1917 2100 2004 2033 2072 2171 2104 2192 2274 1984 1682 1474 1500 1436 640 622 800 927 884 639 850 1054 782 758 708 971 888 924 1145 1217 1293 1088 810 729
0 0 0 8 105 295 328 580 463 337 468 554 562 638 666 883 688 1102 791 815 941 704 709 344 307 372 395 696 925 1150 1124 962 1043 906 820 803 843 976 1189 1300 1482 1538 1516 1451 1632 1856 1848 1870 1905 2005 2068 2164 2016 1810 1992 1998 1866 1688 1419 1427 1302 1357 1511 1703 1798 1844 1926 2045 1982 1982 2066 2021 1853 1854 1183 887 850 1199 800 518 470 534 434 410 629 583 542 673 742 1067 750 736 757 521 539 476 455
4 0 20 158 149 163 496 438 434 329 496 810 795 638 699 683 785 785 408 577 616 492 312 510 416 317 309 662 872 1017 959 996 987 840 883 888 1134 1330 1485 1498 1429 1345 1508 1495 1567 1720 1768 1821 1794 1890 1959 1964 2048 1898 1971 1834 1636 1244 1157 983 1037 1275 1298 1303 1434 1531 1678 1748 1498 1642 1543 1502 1093 911 883 701 672 572 513 436 414 414 375 401 272 447 397 424 458 653 554 414 525 477 424 355 326
29 310 297 304 267 426 379 518 495 713 842 646 787 586 605 698 645 403 280 171 331 496 273 270 400 451 438 691 991 956 1032 1093 1076 1038 1008 1338 1300 1216 1434 1590 1433 1364 1270 1346 1572 1645 1648 1767 1862 1921 1968 1995 1999 1984 1888 1504 1205 875 795 596 599 645 712 746 705 716 981 1359 1038 866 863 737 638 595 675 624 467 387 324 293 223 225 215 195 199 223 216 247 243 314 300 266 283 247 321 300 262
322 296 324 431 392 577 438 478 516 600 711 611 606 469 443 742 470 452 190 178 469 556 344 373 364 860 984 972 1042 933 837 918 936 1064 1414 1534 1241 1063 928 1172 1224 1393 1294 1581 1671 1687 1622 1697 1859 1856 1932 1975 1971 1993 1515 954 698 574 422 274 215 280 373 400 388 390 482 611 585 613 562 461 410 364 346 372 344 274 257 225 174 139 122 113 95 75 100 103 136 170 190 189 200 221 250 231 237
210 345 348 493 509 472 393 412 551 637 694 585 697 523 556 645 570 529 629 694 477 598 326 475 751 900 830 728 936 931 753 747 1165 1298 1427 1542 1275 1032 992 1018 1320 1457 1611 1726 1669 1675 1663 1755 1776 1753 1804 1839 1702 1126 717 452 396 214 164 93 95 115 136 175 183 234 264 257 332 302 313 242 251 247 254 250 209 171 127 94 60 19 7 8 11 2 4 14 23 38 73 101 78 102 110 158 179
290 380 376 409 460 421 381 372 583 654 575 530 417 473 475 422 194 411 447 542 453 349 495 647 678 737 913 946 957 882 1043 1230 1250 1288 1394 1255 1297 1171 1030 1094 1489 1590 1695 1585 1407 1127 1073 859 1798 1678 1818 1584 945 648 359 172 124 85 54 27 26 18 30 38 51 54 88 139 234 223 221 264 232 190 173 127 123 89 64 29 7 0 0 0 0 0 0 0 0 0 0 0 3 9 14 78 48
392 401 426 369 465 491 369 538 672 694 593 487 307 384 387 586 114 198 362 221 172 271 545 581 585 734 497 766 717 731 917 1177 1222 1210 1192 1239 1164 1187 1343 1358 1680 1615 1635 1420 979 867 897 908 1344 1615 1017 760 481 277 139 112 42 24 22 20 4 0 7 4 0 0 14 29 89 131 86 102 121 100 84 64 46 27 2 0 0 0 0 0 0 0 0 0 0 0 0 0 0 0 0 0 0
317 452 423 452 477 373 472 707 732 727 605 506 417 212 165 134 276 95 207 475 547 461 568 456 544 708 624 697 751 746 850 1095 1102 1102 991 963 942 1038 1184 1346 1501 1628 1403 920 820 909 990 855 911 934 681 453 231 156 81 52 22 15 1 0 0 0 0 0 0 0 0 6 22 28 27 15 12 6 3 0 0 0 0 0 0 0 0 0 0 0 0 0 0 0 0 0 0 0 0 0 0
483 537 500 398 400 388 534 598 729 800 642 572 241 119 119 363 365 96 147 519 754 666 310 415 698 560 801 737 751 818 879 967 812 763 873 902 817 975 1196 1278 1244 868 572 553 440 735 756 732 656 447 363 203 128 64 29 13 5 3 0 0 0 0 0 0 0 0 0 0 0 0 0 0 0 0 0 0 0 0 0 0 0 0 0 0 0 0 0 0 0 0 0 0 0 0 0 0 0
459 545 456 412 516 490 606 709 750 710 660 678 522 90 120 44 128 146 330 391 667 396 271 546 468 517 868 939 711 610 691 769 773 655 891 924 1086 1135 722 480 391 351 414 537 331 487 659 690 453 259 133 81 74 32 13 10 4 0 0 0 0 0 0 0 0 0 0 0 0 0 0 0 0 0 0 0 0 0 0 0 0 0 0 0 0 0 0 0 0 0 0 0 0 0 0 0 0
578 530 480 581 542 502 496 688 649 694 773 742 37 229 183 212 94 474 347 572 756 694 450 340 391 572 722 762 614 614 567 550 648 709 934 958 543 347 274 319 270 286 220 165 232 253 497 564 392 157 75 63 53 74 20 1 0 0 0 0 0 0 0 0 0 0 0 0 0 0 0 0 0 0 0 0 0 0 0 0 0 0 0 0 0 0 0 0 0 0 0 0 0 0 0 0 0
645 290 493 645 178 552 524 746 426 682 618 710 318 221 124 243 169 155 344 524 783 664 563 583 585 598 516 519 476 562 676 783 764 1116 1083 627 324 209 190 251 239 142 72 64 68 102 229 285 347 264 95 54 34 22 4 3 2 5 8 5 0 0 0 0 0 0 0 0 0 0 0 0 0 0 0 0 0 0 0 0 0 0 0 0 0 0 0 0 0 0 0 0 0 0 0 0 0
368 238 107 159 212 261 723 693 354 483 447 568 108 36 134 232 249 308 491 448 786 713 617 751 700 612 577 544 563 669 788 918 1081 1243 605 338 246 185 207 228 124 54 7 29 60 89 74 161 194 139 90 51 48 42 23 18 28 15 4 0 0 0 0 0 0 0 0 0 0 0 0 0 0 0 0 0 0 0 0 0 0 0 0 0 0 0 0 0 0 0 0 0 0 0 0 0 0
245 142 252 506 472 315 631 522 566 188 420 471 128 70 36 78 159 292 435 406 502 684 772 747 774 639 656 702 906 1026 1019 1127 1140 802 329 281 235 136 95 104 31 60 35 12 22 75 76 172 81 47 44 37 45 25 20 30 24 19 8 6 2 2 0 0 0 0 0 0 0 0 0 0 0 0 0 0 0 0 0 0 0 0 0 0 0 0 0 0 0 0 0 0 0 0 0 0 0
494 405 309 505 308 146 226 322 434 465 337 180 10 238 25 364 318 247 396 394 294 599 753 670 614 610 762 836 1093 1120 1093 943 552 334 228 61 85 40 14 2 2 4 10 38 32 48 46 38 40 38 38 49 50 39 31 28 25 21 23 13 13 3 3 1 0 0 0 0 0 0 1 0 0 0 0 0 0 0 0 0 0 0 0 0 0 0 0 0 0 0 0 0 0 0 0 0 0
484 619 504 419 341 459 214 332 203 369 270 377 275 378 348 477 408 386 444 376 272 216 425 468 487 701 877 735 630 780 792 440 430 137 151 100 10 8 0 0 0 0 0 6 38 31 32 33 43 49 47 47 50 57 43 26 27 22 32 23 19 8 3 0 0 0 0 0 0 0 0 0 0 0 0 0 0 0 0 0 0 1 0 0 0 0 0 0 0 0 0 0 0 0 0 0 0
344 548 101 364 95 50 263 482 215 610 455 471 240 508 346 94 387 327 495 508 453 374 556 584 588 792 956 733 631 799 529 394 220 38 2 0 2 2 0 0 0 0 0 0 15 32 40 41 36 42 49 53 49 36 26 24 21 16 18 13 9 3 0 0 0 0 0 0 0 0 0 0 0 0 0 0 0 0 0 0 2 6 0 0 0 0 0 0 0 0 0 0 0 0 0 0 0
206 336 625 588 558 351 207 434 430 364 546 390 407 292 265 244 221 241 576 702 644 618 781 764 684 862 1000 745 840 794 411 259 101 2 0 0 0 0 0 0 0 0 0 0 8 25 31 30 48 51 47 36 32 24 23 20 12 15 10 9 4 3 2 1 0 0 0 0 0 0 0 0 0 0 0 0 0 0 0 0 0 0 0 0 0 0 0 0 1 4 7 8 4 2 1 0 0
349 389 616 668 670 722 545 497 372 371 770 401 317 363 419 344 256 115 267 600 727 722 884 877 862 975 1012 1063 802 388 308 173 91 20 2 4 0 0 0 0 0 0 0 0 3 14 31 35 34 34 34 37 39 31 21 22 9 7 10 3 1 0 1 0 0 0 0 0 0 0 0 0 0 0 0 0 0 0 0 0 0 0 0 1 4 3 4 2 4 6 1 2 2 3 8 6 7
421 614 425 704 688 430 515 486 269 416 755 540 327 464 477 493 416 229 182 263 554 637 719 654 940 960 1093 1053 627 372 321 189 119 33 10 2 0 0 0 0 0 0 0 0 0 8 20 18 22 15 20 20 22 26 19 2 3 5 7 5 3 0 0 0 0 0 0 0 0 0 0 3 0 0 0 0 0 0 2 4 4 11 11 14 17 14 10 8 18 21 25 14 9 3 0 6 18
643 666 763 537 254 773 442 352 379 324 761 465 284 411 472 512 451 379 372 513 492 380 384 538 501 457 796 982 611 441 227 176 47 117 32 3 0 0 0 0 0 0 0 0 0 3 10 12 14 5 4 4 3 1 0 3 7 10 5 10 8 3 0 2 1 6 0 0 0 0 0 2 2 2 0 0 0 0 4 7 12 20 18 25 32 26 22 27 31 23 30 27 29 22 3 5 15
273 402 512 507 429 137 833 574 597 310 276 555 277 528 450 401 404 449 412 454 713 530 540 525 534 579 529 952 830 563 287 260 204 148 51 8 2 0 0 0 0 0 0 0 0 0 0 0 0 0 0 2 1 0 1 2 6 6 10 8 13 14 13 9 1 0 0 0 0 0 0 2 1 1 5 1 1 3 12 23 26 30 29 45 39 36 42 31 26 27 35 41 42 39 8 17 24
346 202 406 340 277 357 377 250 538 535 444 437 566 131 378 473 421 197 544 427 411 509 544 622 750 735 790 885 955 796 496 398 341 189 203 79 10 0 0 0 0 0 0 0 0 0 0 0 0 0 0 0 0 1 3 16 15 12 17 14 11 7 2 1 4 3 0 0 0 6 2 3 2 5 1 4 5 11 25 37 46 36 29 30 31 34 30 28 27 40 28 33 38 25 7 0 2
585 441 274 298 291 374 455 432 250 423 840 504 188 497 176 375 461 464 697 447 408 485 428 446 554 632 696 884 1018 989 774 452 494 445 234 115 14 0 0 0 0 0 0 0 0 0 0 0 0 0 0 0 0 1 5 16 9 12 6 4 7 5 0 0 0 2 8 0 7 12 3 4 0 3 11 8 12 14 24 34 36 29 25 24 22 32 43 46 25 30 26 18 3 0 0 0 0
397 130 348 302 381 448 522 504 614 544 177 203 274 426 630 381 415 284 484 483 498 620 533 536 549 528 426 581 1005 1046 756 418 426 260 174 134 34 0 0 0 0 0 0 0 0 0 0 0 0 3 0 0 1 1 7 30 4 1 0 4 3 0 0 0 0 0 3 12 7 9 6 2 4 9 12 14 14 16 29 28 25 29 26 22 21 30 37 37 16 8 4 0 0 0 0 0 0
406 294 297 369 462 453 378 641 736 500 381 731 546 238 402 208 735 362 392 392 370 522 605 570 666 640 604 706 923 966 742 519 426 339 282 137 63 0 0 7 2 0 0 0 0 2 8 5 3 5 7 6 9 6 2 1 1 7 5 0 0 0 3 1 0 0 1 11 0 1 4 9 12 19 16 15 22 25 28 36 23 42 69 55 23 22 11 2 0 0 0 0 0 0 0 0 0
293 418 427 412 397 371 299 653 632 480 515 297 770 477 745 316 700 441 459 367 432 434 487 513 528 615 648 678 786 958 791 694 531 439 299 202 89 3 0 10 1 0 0 0 0 3 5 4 5 11 12 16 12 15 7 3 2 3 3 0 0 0 2 2 3 4 11 19 0 4 10 9 12 25 31 50 87 50 92 74 34 46 51 21 9 2 0 0 0 0 0 0 0 0 0 0 0
422 473 463 387 428 495 399 348 470 277 185 358 380 328 563 640 441 793 582 444 374 370 386 405 440 469 490 598 677 850 774 723 677 560 450 319 150 18 0 2 1 0 0 0 4 6 2 4 6 14 14 16 16 24 16 4 3 4 0 4 0 2 14 15 16 18 12 6 20 16 15 29 31 30 45 129 104 89 92 69 38 15 9 1 0 0 0 0 0 0 0 0 0 0 0 0 0
506 537 699 388 574 488 650 794 542 257 152 240 247 320 322 782 146 353 364 223 255 363 476 417 350 377 432 534 581 638 684 730 726 668 605 372 200 66 0 1 0 0 0 0 0 2 2 2 5 11 18 18 22 20 24 10 2 0 2 6 2 5 14 9 9 11 10 12 24 16 28 27 30 27 38 122 103 68 61 42 18 2 0 0 0 0 0 0 0 0 0 0 0 0 0 0 0
564 540 288 589 468 591 66 809 13 229 255 334 272 306 656 493 593 521 210 281 259 306 442 463 348 306 425 457 507 515 690 736 754 731 627 394 308 153 16 1 0 0 0 0 0 1 0 0 2 6 14 14 16 17 13 17 12 9 8 11 9 5 6 14 14 0 1 15 18 33 20 24 26 24 102 67 53 30 26 13 0 0 0 0 0 0 0 0 0 0 0 0 0 0 0 0 0
528 389 653 598 241 65 8 247 276 490 612 496 614 352 673 348 480 231 307 321 298 376 383 440 454 397 425 466 463 435 633 729 719 710 626 417 379 250 83 11 0 0 0 0 0 0 0 1 1 1 11 8 8 12 10 19 21 24 24 20 10 12 10 2 7 17 3 8 16 27 21 25 24 50 96 54 16 3 0 0 0 0 0 0 0 0 0 0 0 0 0 0 0 0 0 0 0
589 460 79 623 447 428 32 164 61 143 327 508 519 752 134 70 788 285 357 281 320 293 329 435 455 500 519 448 399 413 566 650 654 673 649 464 453 347 171 41 8 0 0 0 0 0 0 0 0 1 4 4 6 6 7 7 8 7 22 25 24 19 19 3 4 0 10 18 14 18 27 16 34 64 58 15 0 0 0 0 0 0 0 0 0 0 0 0 0 0 0 0 0 0 0 0 0
469 424 206 144 615 183 352 222 158 212 132 610 823 351 156 640 399 320 303 234 359 359 368 369 489 487 543 517 451 408 492 518 632 724 762 639 599 516 294 140 28 0 0 0 0 0 0 0 0 3 5 4 4 4 6 6 6 9 14 28 31 27 16 19 5 5 18 42 36 27 34 78 74 61 21 6 1 0 0 0 0 0 0 0 0 0 0 0 0 0 0 0 0 0 0 0 0
527 320 500 428 121 153 184 146 360 490 239 54 5 489 560 183 156 210 371 309 344 397 359 366 491 462 675 601 442 417 452 463 619 761 765 659 735 659 417 243 68 0 0 0 0 0 0 2 1 6 8 6 6 4 6 10 18 16 24 19 13 12 22 26 16 18 24 78 81 65 79 75 68 37 10 1 0 0 0 0 0 0 0 0 0 0 0 0 0 0 0 0 0 0 0 0 0
216 254 309 122 49 163 144 175 132 143 140 7 74 19 12 222 129 112 311 479 458 398 472 466 610 637 848 718 649 552 453 474 570 653 695 645 638 701 368 228 87 4 0 0 0 0 0 0 0 1 4 5 4 5 10 18 19 22 24 35 32 22 16 15 17 18 63 49 86 117 135 96 40 8 1 0 0 0 0 0 0 0 0 0 0 0 0 0 0 0 0 0 0 0 0 0 0
133 422 104 213 164 163 428 43 3 9 4 0 59 0 143 6 189 156 618 403 497 539 506 597 704 742 739 794 687 529 467 526 594 650 621 575 551 603 421 166 63 26 1 0 0 0 0 2 0 3 2 6 6 10 18 32 32 28 23 33 73 173 65 35 40 67 87 56 64 116 97 44 6 0 0 0 0 0 7 0 0 0 0 0 0 0 0 0 0 0 0 0 0 0 0 0 0
29 38 180 118 68 242 292 220 8 182 5 0 0 0 16 68 6 0 102 348 549 557 596 624 656 714 714 708 627 524 566 667 577 662 653 562 534 506 475 272 34 0 0 0 0 0 0 4 3 9 14 16 29 33 55 34 21 23 26 20 74 132 112 44 127 178 88 65 91 76 41 14 1 0 0 0 21 27 30 0 0 0 0 0 0 0 0 0 0 0 0 0 0 0 0 0 0
175 195 437 192 287 173 4 60 21 2 0 0 0 0 1 7 0 5 63 262 464 556 590 594 577 676 718 684 636 539 553 672 630 682 643 529 535 485 359 370 12 0 0 0 0 1 2 9 10 20 43 59 96 88 53 52 35 42 48 179 249 487 364 174 217 159 100 109 80 33 9 12 26 30 28 30 31 32 27 0 0 0 0 0 0 0 0 0 0 0 0 0 0 0 0 0 0
187 251 391 321 453 425 237 90 37 45 0 5 0 0 0 37 53 255 162 363 520 488 558 624 520 571 703 737 769 728 707 883 755 640 586 482 507 481 249 124 0 0 0 0 0 2 2 3 7 22 34 44 46 45 50 65 150 376 347 364 485 556 444 225 296 174 212 103 46 34 35 34 37 33 34 31 35 30 0 0 0 0 0 0 0 0 0 0 0 0 0 0 0 0 0 0 0
Wind_Speed
nan nan nan nan nan nan nan nan nan nan nan nan nan nan nan nan nan nan nan 31 27 32 29 28 27 28 25 29 30 31 32 28 33 26 33 34 34 40 39 36 35 37 39 40 38 35 40 43 41 41 38 35 36 35 33 31 30 30 30 30 30 30 29 29 28 27 26 25 24 25 26 26 25 24 24 23 22 22 23 22 19 21 21 19 20 21 22 24 24 24 24 25 26 26 27 26 28
nan nan nan nan nan nan nan nan nan nan nan nan nan nan nan nan nan nan nan 27 30 32 31 29 30 31 29 27 30 28 36 36 35 38 37 39 40 34 36 37 36 39 39 35 34 35 39 40 38 37 37 36 36 34 33 31 29 30 31 31 31 30 30 29 27 26 25 23 23 23 24 24 23 23 22 21 21 21 20 20 20 20 19 19 19 20 23 25 25 22 22 23 24 24 25 26 26
nan nan nan nan nan nan nan nan nan nan nan nan nan nan nan nan nan 30 30 29 29 31 31 31 30 29 29 28 28 28 32 35 37 38 35 31 33 36 41 40 38 38 36 31 32 34 34 35 36 36 36 37 36 34 33 32 31 32 32 32 31 29 28 27 26 25 24 23 22 22 22 22 22 22 21 21 21 20 20 19 21 21 20 22 23 21 23 24 24 21 19 20 22 21 23 24 24
nan nan nan nan nan nan nan nan nan nan nan nan nan nan nan nan 32 31 30 31 32 29 29 32 27 31 26 28 33 30 35 33 36 31 33 26 25 32 39 40 39 37 36 34 32 34 34 36 36 36 36 35 34 34 33 33 32 30 30 30 29 28 26 26 25 25 24 23 22 21 21 21 21 21 21 21 21 21 20 20 22 23 24 24 25 23 22 24 25 20 20 18 18 18 20 21 21
nan nan nan nan nan nan nan nan nan nan nan nan nan nan nan nan 33 33 34 32 31 26 28 29 29 32 28 33 30 28 31 36 37 36 32 27 24 30 37 38 37 33 33 34 31 33 34 38 36 35 35 35 34 34 32 31 30 28 28 29 27 26 25 25 24 24 23 22 21 21 21 20 20 21 21 22 22 22 22 22 22 23 24 24 23 22 22 23 24 23 20 19 17 16 19 19 19
nan nan nan nan nan nan nan nan nan nan nan nan nan nan nan 31 33 35 35 31 28 26 27 25 27 30 31 32 31 31 29 26 29 34 31 27 28 30 33 31 30 29 32 34 34 34 33 37 35 35 34 33 32 30 27 28 28 28 28 27 26 25 24 24 23 22 21 21 20 20 20 20 20 21 22 22 22 22 22 22 21 20 20 20 21 21 20 21 21 21 19 18 17 18 17 17 17
nan nan nan nan nan nan nan nan nan nan nan nan nan nan nan 34 34 33 33 31 30 27 28 27 28 30 33 32 36 34 33 29 31 30 31 32 31 27 30 29 30 32 33 31 34 32 33 34 33 31 32 31 30 29 26 26 27 26 25 25 24 24 22 21 20 20 19 19 20 20 20 20 20 21 22 22 22 22 21 20 19 18 17 17 18 18 18 18 19 19 18 17 16 16 16 15 16
nan nan nan nan nan nan nan nan nan nan nan nan nan nan 33 35 32 30 31 27 32 26 32 30 28 26 33 28 29 32 35 35 36 29 28 29 30 29 27 26 28 29 29 28 30 29 31 32 31 30 30 30 29 27 26 26 25 24 24 23 22 21 20 19 18 18 18 19 19 19 19 19 18 19 19 20 20 20 19 18 18 17 17 16 16 16 15 15 16 16 16 16 14 14 15 13 15
nan nan nan nan nan nan nan nan nan nan nan nan nan 34 32 32 31 28 26 29 29 29 30 29 28 22 29 34 33 32 32 33 32 31 31 31 30 28 24 22 24 26 27 27 27 27 27 29 31 31 30 30 29 27 25 24 23 22 22 22 21 19 17 17 16 16 17 18 18 17 18 17 17 16 17 17 18 18 18 17 16 16 15 15 14 14 14 13 13 14 13 13 14 12 12 12 12
nan nan nan nan nan nan nan nan nan nan nan nan nan 37 35 33 31 28 26 27 29 27 32 25 25 32 32 34 32 30 30 31 32 33 29 29 29 29 28 25 26 27 26 24 24 24 25 28 29 29 30 30 28 27 24 22 21 21 20 20 19 17 16 16 15 15 15 16 16 16 16 16 16 16 16 16 16 16 15 15 14 14 13 13 12 12 12 11 10 10 9 10 10 10 9 9 10
nan nan nan nan nan nan nan nan nan nan nan nan 36 37 36 31 28 28 25 25 29 26 28 24 27 29 32 32 31 28 25 30 34 33 30 30 29 31 29 26 25 25 23 22 22 22 23 24 28 28 28 28 28 26 23 21 20 19 20 19 17 16 16 15 15 15 14 13 13 14 14 15 15 15 15 15 15 14 13 12 12 11 11 11 10 10 9 9 9 8 8 8 8 7 7 7 7
nan nan nan nan nan nan nan nan nan nan nan nan 35 36 36 31 28 25 26 24 27 26 26 24 27 23 30 29 28 28 29 35 35 31 33 31 29 27 26 24 24 24 22 22 23 23 23 23 24 28 27 26 26 24 21 20 19 19 18 17 16 15 14 14 13 13 12 11 11 12 13 13 13 14 13 13 13 13 12 11 11 11 11 10 10 10 9 8 8 8 8 9 8 8 7 7 7
nan nan nan nan nan nan nan nan nan nan nan nan 33 37 34 31 27 28 26 25 26 22 29 28 27 22 27 28 30 32 33 34 33 30 29 29 26 22 23 25 25 24 22 22 23 23 23 22 23 24 26 26 25 22 20 20 18 17 15 14 13 13 13 11 10 10 9 9 9 10 11 11 11 11 11 11 12 12 11 11 10 10 10 10 9 9 9 8 8 8 9 8 9 9 8 9 8
nan nan nan nan nan nan nan nan nan nan nan 31 33 35 32 28 29 26 25 23 26 26 28 26 24 27 30 31 30 30 32 32 32 30 28 27 24 23 26 27 27 24 22 22 22 21 22 22 22 22 22 20 19 20 20 19 18 15 13 11 10 10 11 9 8 7 7 7 8 8 8 9 10 10 10 11 12 11 11 11 10 10 10 9 8 8 8 8 7 7 8 8 8 9 10 9 9
nan nan nan nan nan nan nan nan nan nan nan 25 34 32 30 30 25 25 23 22 29 26 26 27 26 17 25 23 29 25 28 30 29 28 28 26 27 29 30 28 26 24 22 21 20 20 20 20 19 18 15 14 15 14 15 16 16 15 13 11 10 9 9 8 7 8 7 7 7 7 7 8 10 10 12 12 13 13 10 10 10 10 10 9 9 9 9 8 7 7 7 8 8 9 8 9 9
nan nan nan nan nan nan nan nan nan nan 25 24 30 29 27 29 25 21 27 24 29 27 23 27 31 28 32 36 31 27 28 28 27 28 28 30 32 34 31 27 25 24 22 19 18 18 18 17 15 13 12 12 12 13 13 12 12 11 10 9 9 8 8 8 7 7 7 6 6 5 5 8 9 10 11 12 12 11 11 9 9 9 9 8 8 8 7 7 7 8 8 7 8 8 8 9 10
nan nan nan nan nan nan nan nan nan nan 23 23 26 24 23 25 25 23 25 21 22 28 29 30 32 30 35 34 35 30 29 29 28 29 30 29 31 31 27 24 23 23 20 17 16 17 16 14 12 12 13 12 10 9 9 8 7 8 9 9 8 7 6 6 5 5 3 7 4 5 4 6 8 8 8 8 7 7 8 7 7 8 7 7 8 8 8 8 8 8 8 8 7 8 8 9 12
nan nan nan nan nan nan nan nan nan 16 nan 23 20 19 16 18 22 24 23 24 26 27 29 31 34 34 33 32 31 30 30 29 27 27 27 28 27 27 24 23 22 22 18 16 17 15 13 12 11 11 12 10 7 7 7 5 6 4 4 4 2 3 4 3 4 3 4 4 6 5 5 6 5 5 4 4 4 5 8 7 8 8 8 8 8 8 8 8 8 8 8 8 6 7 7 9 15
nan nan nan nan nan 16 12 13 10 10 16 18 18 16 12 16 17 21 16 24 24 28 30 28 31 31 31 28 26 27 28 28 26 26 27 28 27 25 22 22 21 19 17 16 17 14 11 11 11 12 11 9 9 8 6 5 4 2 2 1 3 2 3 4 4 4 5 6 6 6 4 4 3 3 3 3 5 10 9 8 9 10 10 9 7 9 10 8 7 7 7 4 3 7 6 7 5
nan nan nan nan 13 16 16 13 12 13 14 16 18 18 14 19 13 19 15 19 20 21 25 27 26 26 28 21 25 25 25 25 25 26 27 27 25 22 21 20 18 17 16 15 15 13 11 12 12 11 10 8 7 6 3 2 1 0 1 1 1 2 3 4 5 5 5 5 4 2 1 1 1 3 5 5 6 6 10 12 12 13 14 13 6 8 11 11 7 13 9 5 7 3 3 1 3
nan nan nan 12 13 11 16 12 13 14 14 16 18 18 16 17 14 15 13 14 19 22 27 27 29 25 26 19 22 21 22 23 24 25 24 23 22 19 17 16 14 13 13 13 13 13 12 10 10 10 8 7 6 3 1 1 1 1 1 1 2 2 3 4 4 4 4 5 3 2 2 1 1 2 3 4 5 7 7 8 10 11 11 10 6 6 4 3 2 2 2 1 2 1 2 1 1
nan 11 12 12 12 13 15 15 14 15 15 15 16 13 17 13 15 15 24 20 19 18 23 27 21 19 22 18 18 20 21 22 24 23 22 21 18 16 13 11 11 10 9 11 13 12 10 9 8 8 7 5 2 2 0 0 2 2 3 4 4 4 4 4 5 4 4 5 4 2 1 1 2 5 6 6 7 8 9 9 11 12 10 7 4 4 3 2 2 2 2 2 2 2 1 2 2
8 15 14 13 12 14 14 16 16 13 16 13 16 13 16 12 14 18 14 16 16 14 26 18 18 21 21 19 18 21 23 23 23 22 20 18 14 11 9 8 8 8 8 11 11 10 9 8 7 5 4 3 2 1 0 0 1 3 5 6 7 6 5 5 4 4 3 3 2 2 1 3 5 7 8 9 10 10 10 10 11 11 7 5 nan nan nan 2 2 2 2 2 1 2 2 2 1
5 14 13 13 14 16 15 16 14 15 12 13 12 14 11 12 14 11 13 12 14 17 19 13 16 17 17 18 19 20 21 23 22 19 18 15 12 9 8 7 9 8 9 8 7 6 6 6 4 3 3 2 1 2 2 1 2 3 5 nan nan 5 5 4 3 2 1 2 3 4 5 6 8 9 10 11 11 11 10 nan nan nan nan nan nan nan nan nan nan nan nan 2 nan 1 2 2 1
11 14 13 14 14 14 13 12 13 13 13 12 12 12 10 6 10 9 10 8 8 13 10 11 13 15 14 16 18 18 19 20 21 19 16 13 10 8 7 7 8 8 8 5 4 4 4 4 4 3 2 3 3 2 2 3 4 nan nan nan nan nan nan nan nan nan nan 5 6 7 8 9 10 11 11 11 12 nan nan nan nan nan nan nan nan nan nan nan nan nan nan nan nan nan nan nan nan
7 11 10 11 13 12 11 11 10 8 9 8 10 11 10 7 12 8 7 9 8 7 9 10 10 11 14 13 15 15 15 17 18 17 15 11 8 7 7 8 7 7 6 3 2 4 4 4 5 5 5 4 3 2 4 5 nan nan nan nan nan nan nan nan nan nan nan nan nan 10 nan 11 12 12 nan nan nan nan nan nan nan nan nan nan nan nan nan nan nan nan nan nan nan nan nan nan nan
8 9 9 10 10 8 8 8 6 5 7 8 9 12 7 6 3 nan 8 6 6 7 6 9 10 9 12 14 15 15 15 15 15 12 10 9 7 7 8 8 7 6 4 4 4 4 4 5 6 6 6 4 3 4 nan nan nan nan nan nan nan nan nan nan nan nan nan nan nan nan nan nan nan nan nan nan nan nan nan nan nan nan nan nan nan nan nan nan nan nan nan nan nan nan nan nan nan
10 11 10 9 7 4 4 3 3 6 6 6 8 7 8 4 1 nan 7 3 4 6 6 8 8 10 12 13 14 14 14 12 9 8 9 6 6 7 6 6 6 5 5 5 5 5 6 7 8 7 5 4 4 nan nan nan nan nan nan nan nan nan nan nan nan nan nan nan nan nan nan nan nan nan nan nan nan nan nan nan nan nan nan nan nan nan nan nan nan nan nan nan nan nan nan nan nan
10 9 8 7 7 5 2 1 2 5 7 5 2 nan 2 nan 2 3 4 1 2 4 5 6 8 10 10 10 10 9 10 9 7 8 8 8 8 6 6 6 5 5 6 6 6 8 9 9 8 6 3 nan nan nan nan nan nan nan nan nan nan nan nan nan nan nan nan nan nan nan nan nan nan nan nan nan nan nan nan nan nan nan nan nan nan nan nan nan nan nan nan nan nan nan nan nan nan
7 9 7 10 9 6 4 3 3 5 6 6 nan 3 2 4 nan 3 2 2 3 2 5 5 3 5 6 6 7 8 8 5 7 8 7 7 7 6 6 6 5 5 5 7 8 9 8 6 5 2 nan nan nan nan nan nan nan nan nan nan nan nan nan nan nan nan nan nan nan nan nan nan nan nan nan nan nan nan nan nan nan nan nan nan nan nan nan nan nan nan nan nan nan nan nan nan nan
7 4 11 8 12 4 5 4 4 6 5 8 3 4 2 2 4 2 2 1 1 2 4 6 5 4 4 4 5 6 6 7 8 8 8 7 7 6 6 6 6 5 nan nan nan 8 6 5 2 3 nan nan nan nan nan nan nan nan nan nan nan nan nan nan nan nan nan nan nan nan nan nan nan nan nan nan nan nan nan nan nan nan nan nan nan nan nan nan nan nan nan nan nan nan nan nan nan
4 8 8 8 9 6 5 6 4 3 5 6 3 nan 3 4 3 4 4 2 1 3 3 3 4 4 4 4 5 4 6 6 7 7 6 7 5 6 7 7 5 nan nan nan nan nan nan 3 3 3 nan nan nan nan nan nan nan nan nan nan nan nan nan nan nan nan nan nan nan nan nan nan nan nan nan nan nan nan nan nan nan nan nan nan nan nan nan nan nan nan nan nan nan nan nan nan nan
9 12 4 5 5 4 8 6 3 5 4 4 5 nan nan nan 2 2 5 0 1 2 2 2 4 4 3 4 5 5 5 4 4 4 6 5 5 7 nan 6 nan nan nan nan nan nan nan 4 nan nan nan nan nan nan nan nan nan nan nan nan nan nan nan nan nan nan nan nan nan nan nan nan nan nan nan nan nan nan nan nan nan nan nan nan nan nan nan nan nan nan nan nan nan nan nan nan nan
3 5 3 4 3 6 5 6 6 5 6 3 nan 5 nan 4 3 0 2 3 3 1 2 1 1 2 1 3 3 3 3 2 2 3 3 nan nan nan nan nan nan nan nan nan nan nan nan nan nan nan nan nan nan nan nan nan nan nan nan nan nan nan nan nan nan nan nan nan nan nan nan nan nan nan nan nan nan nan nan nan nan nan nan nan nan nan nan nan nan nan nan nan nan nan nan nan nan
2 2 3 4 2 4 1 4 2 8 4 6 3 2 2 2 3 2 2 4 5 4 2 2 2 2 2 2 3 3 2 2 3 2 5 6 nan nan nan nan nan nan nan nan nan nan nan nan nan nan nan nan nan nan nan nan nan nan nan nan nan nan nan nan nan nan nan nan nan nan nan nan nan nan nan nan nan nan nan nan nan nan nan nan nan nan nan nan nan nan nan nan nan nan nan nan nan
2 4 3 2 nan nan 1 3 2 4 4 3 4 2 3 nan 4 4 4 5 5 3 4 3 3 3 2 2 2 1 2 4 3 nan nan nan nan nan nan nan nan nan nan nan nan nan nan nan nan nan nan nan nan nan nan nan nan nan nan nan nan nan nan nan nan nan nan nan nan nan nan nan nan nan nan nan nan nan nan nan nan nan nan nan nan nan nan nan nan nan nan nan nan nan nan nan nan
4 2 3 1 2 4 4 4 4 1 5 2 2 0 3 5 5 6 6 6 6 6 7 6 5 4 3 3 2 2 3 5 5 nan nan nan nan nan nan nan nan nan nan nan nan nan nan nan nan nan nan nan nan nan nan nan nan nan nan nan nan nan nan nan nan nan nan nan nan nan nan nan nan nan nan nan nan nan nan nan nan nan nan nan nan nan nan nan nan nan nan nan nan nan nan nan nan
3 3 2 2 2 4 3 5 2 1 8 1 2 1 1 2 4 6 7 8 9 9 8 7 6 5 3 3 3 4 5 6 nan nan nan nan nan nan nan nan nan nan nan nan nan nan nan nan nan nan nan nan nan nan nan nan nan nan nan nan nan nan nan nan nan nan nan nan nan nan nan nan nan nan nan nan nan nan nan nan nan nan nan nan nan nan nan nan nan nan nan nan nan nan nan nan nan
6 2 2 2 2 4 5 4 2 2 6 1 3 1 2 1 2 3 6 7 7 8 8 7 7 6 3 3 4 6 7 7 7 nan nan nan nan nan nan nan nan nan nan nan nan nan nan nan nan nan nan nan nan nan nan nan nan nan nan nan nan nan nan nan nan nan nan nan nan nan nan nan nan nan nan nan nan nan nan nan nan nan nan nan nan nan nan nan nan nan nan nan nan nan nan nan nan
6 5 5 3 3 7 4 5 6 4 6 2 6 4 1 2 2 3 5 7 6 6 7 6 6 6 6 6 6 7 9 9 nan 8 nan nan nan nan nan nan nan nan nan nan nan nan nan nan nan nan nan nan nan nan nan nan nan nan nan nan nan nan nan nan nan nan nan nan nan nan nan nan nan nan nan nan nan nan nan nan nan nan nan nan nan nan nan nan nan nan nan nan nan nan nan nan nan
2 2 1 2 4 3 9 4 7 6 5 8 8 9 5 6 6 6 7 7 6 6 7 8 7 7 6 6 7 7 8 9 9 10 nan nan nan nan nan nan nan nan nan nan nan nan nan nan nan nan nan nan nan nan nan nan nan nan nan nan nan nan nan nan nan nan nan nan nan nan nan nan nan nan nan nan nan nan nan nan nan nan nan nan nan nan nan nan nan nan nan nan nan nan nan nan nan
5 1 2 1 2 3 3 6 8 8 6 9 11 11 9 9 10 10 8 9 10 9 10 10 9 8 8 8 7 7 7 8 9 10 11 nan nan nan nan nan nan nan nan nan nan nan nan nan nan nan nan nan nan nan nan nan nan nan nan nan nan nan nan nan nan nan nan nan nan nan nan nan nan nan nan nan nan nan nan nan nan nan nan nan nan nan nan nan nan nan nan nan nan nan nan nan nan
5 5 5 4 3 3 4 6 11 6 6 3 9 13 4 7 10 10 10 12 12 11 12 12 11 10 10 9 8 8 9 10 9 10 12 13 nan nan nan nan nan nan nan nan nan nan nan nan nan nan nan nan nan nan nan nan nan nan nan nan nan nan nan nan nan nan nan nan nan nan nan nan nan nan nan nan nan nan nan nan nan nan nan nan nan nan nan nan nan nan nan nan nan nan nan nan nan
5 7 6 7 7 6 5 6 6 4 4 3 10 10 8 4 6 10 11 13 14 14 14 14 12 13 12 11 10 10 11 11 11 11 13 14 nan nan nan nan nan nan nan nan nan nan nan nan nan nan nan nan nan nan nan nan nan nan nan nan nan nan nan nan nan nan nan nan nan nan nan nan nan nan nan nan nan nan nan nan nan nan nan nan nan nan nan nan nan nan nan nan nan nan nan nan nan
8 9 8 6 7 6 4 6 4 4 5 2 4 5 7 2 5 7 13 13 15 16 15 15 14 13 14 14 13 13 13 13 12 12 14 15 nan nan nan nan nan nan nan nan nan nan nan nan nan nan nan nan nan nan nan nan nan nan nan nan nan nan nan nan nan nan nan nan nan nan nan nan nan nan nan nan nan nan nan nan nan nan nan nan nan nan nan nan nan nan nan nan nan nan nan nan nan
8 8 5 4 6 7 3 5 4 1 5 3 2 1 6 4 9 10 12 11 13 15 15 15 16 15 15 15 15 15 14 13 14 14 14 15 nan nan nan nan nan nan nan nan nan nan nan nan nan nan nan nan nan nan nan nan nan nan nan nan nan nan nan nan nan nan nan nan nan nan nan nan nan nan nan nan nan nan nan nan nan nan nan nan nan nan nan nan nan nan nan nan nan nan nan nan nan
14 10 8 8 7 6 5 4 3 4 3 4 2 3 5 1 7 8 12 11 11 11 12 13 15 16 17 16 16 14 13 13 13 14 13 14 14 nan nan nan nan nan nan nan nan nan nan nan nan nan nan nan nan nan nan nan nan nan nan nan nan nan nan nan nan nan nan nan nan nan nan nan nan nan nan 21 21 nan nan nan nan nan nan nan nan nan nan nan nan nan nan nan nan nan nan nan nan
13 7 5 6 8 6 6 5 4 6 4 5 2 2 4 3 7 7 9 9 9 8 11 15 17 18 18 17 15 14 13 12 13 12 12 13 14 nan nan nan nan nan nan nan nan nan nan nan nan nan nan nan nan nan nan nan nan nan nan nan nan nan nan nan nan nan nan nan nan nan nan nan nan nan nan 21 21 nan nan nan nan nan nan nan nan nan nan nan nan nan nan nan nan nan nan nan nan
9 4 5 7 3 6 nan 8 nan 1 5 7 3 2 3 4 3 7 10 9 9 8 8 13 17 19 20 19 17 13 13 13 13 12 11 12 12 12 nan nan nan nan nan nan nan nan nan nan nan nan nan nan nan nan nan nan nan nan nan nan nan nan nan nan nan nan nan nan nan nan nan nan nan nan 20 nan nan nan nan nan nan nan nan nan nan nan nan nan nan nan nan nan nan nan nan nan nan
8 6 4 6 3 nan nan 1 2 5 7 5 4 4 2 5 6 6 5 7 7 9 9 8 11 17 20 20 18 14 13 14 13 12 11 12 11 11 nan nan nan nan nan nan nan nan nan nan nan nan nan nan nan nan nan nan nan nan nan nan nan nan nan nan nan nan nan nan nan nan nan nan nan nan nan nan nan nan nan nan nan nan nan nan nan nan nan nan nan nan nan nan nan nan nan nan nan
5 4 nan 6 6 5 nan 4 nan 4 4 6 6 3 5 nan 3 4 8 8 7 6 7 10 11 12 17 19 18 16 15 13 13 11 10 11 10 11 10 nan nan nan nan nan nan nan nan nan nan nan nan nan nan nan nan nan nan nan nan nan nan nan nan nan nan nan nan nan nan nan nan nan nan nan nan nan nan nan nan nan nan nan nan nan nan nan nan nan nan nan nan nan nan nan nan nan nan
1 1 3 3 5 5 5 6 5 5 1 5 5 2 5 8 9 8 6 6 6 5 6 9 14 13 14 16 17 16 14 13 12 11 10 10 9 9 9 9 nan nan nan nan nan nan nan nan nan nan nan nan nan nan nan nan nan nan nan nan nan nan nan nan nan nan nan nan nan nan nan nan nan nan nan nan nan nan nan nan nan nan nan nan nan nan nan nan nan nan nan nan nan nan nan nan nan
5 5 2 3 7 6 2 2 1 1 4 nan nan 3 8 12 11 7 5 7 8 7 9 12 15 15 13 14 15 16 15 13 11 10 9 10 9 9 9 11 nan nan nan nan nan nan nan nan nan nan nan nan nan nan nan nan nan nan nan nan nan nan nan nan nan nan nan nan nan nan nan nan nan nan nan nan nan nan nan nan nan nan nan nan nan nan nan nan nan nan nan nan nan nan nan nan nan
5 4 5 5 nan 7 4 4 2 1 3 nan nan nan nan 5 8 5 8 9 10 10 12 14 16 16 14 12 14 15 15 12 11 10 10 10 10 11 10 11 nan nan nan nan nan nan nan nan nan nan nan nan nan nan nan nan nan nan nan nan nan nan nan nan nan nan nan nan nan 27 27 nan nan nan nan nan nan nan nan nan nan nan nan nan nan nan nan nan nan nan nan nan nan nan nan nan nan
3 4 7 5 4 3 4 nan nan nan nan nan nan nan 7 nan 14 11 13 10 11 11 14 16 17 15 13 12 14 15 15 11 10 10 10 10 10 11 11 11 nan nan nan nan nan nan nan nan nan nan nan nan nan nan nan nan nan nan nan nan nan 20 nan nan nan nan nan nan nan 27 nan nan nan nan nan nan nan nan nan nan nan nan nan nan nan nan nan nan nan nan nan nan nan nan nan nan nan
nan nan 6 5 nan 5 2 6 nan 3 nan nan nan nan nan nan nan nan 9 12 11 12 14 14 15 14 12 12 13 15 14 11 10 10 10 11 11 12 13 12 nan nan nan nan nan nan nan nan nan nan nan nan nan nan nan nan nan nan nan nan nan 19 20 nan 23 25 nan nan nan nan nan nan nan nan nan nan nan nan nan nan nan nan nan nan nan nan nan nan nan nan nan nan nan nan nan nan nan
8 6 6 6 2 6 nan nan nan nan nan nan nan nan nan nan nan nan nan 11 13 14 13 12 13 14 12 12 14 13 13 11 11 10 10 12 11 12 13 12 nan nan nan nan nan nan nan nan nan nan nan nan nan nan nan nan nan nan nan 17 18 19 21 22 24 25 nan 26 nan nan nan nan nan nan nan nan nan nan nan nan nan nan nan nan nan nan nan nan nan nan nan nan nan nan nan nan nan
1 2 2 2 4 4 1 nan nan nan nan nan nan nan nan nan nan 11 10 12 12 13 14 13 13 14 13 12 13 12 11 11 10 10 10 11 11 11 12 11 nan nan nan nan nan nan nan nan nan nan nan nan nan nan nan nan 16 17 17 17 18 20 22 23 25 26 27 28 nan nan nan nan nan nan nan nan nan nan nan nan nan nan nan nan nan nan nan nan nan nan nan nan nan nan nan nan nan
Wind_Direction
nan nan nan nan nan nan nan nan nan nan nan nan nan nan nan nan nan nan nan 274 280 268 269 272 273 275 266 265 263 272 266 266 272 277 281 282 279 286 278 276 274 280 278 279 280 284 282 281 281 280 281 282 283 283 284 286 288 287 285 282 278 278 276 276 278 280 281 281 282 282 281 281 278 277 275 274 271 273 279 286 280 272 267 264 265 262 269 273 268 271 270 266 264 267 266 266 265
nan nan nan nan nan nan nan nan nan nan nan nan nan nan nan nan nan nan nan 264 264 269 273 271 272 270 267 272 273 273 271 265 266 280 280 280 283 269 273 276 278 278 278 277 280 285 285 280 277 277 280 282 283 283 283 285 284 283 282 279 277 275 275 278 280 281 283 282 281 279 278 277 275 274 273 273 271 270 269 272 277 278 276 276 272 266 269 268 266 255 262 268 270 270 269 268 267
nan nan nan nan nan nan nan nan nan nan nan nan nan nan nan nan nan 275 272 274 272 271 275 274 270 273 273 271 280 262 273 271 273 273 277 282 284 272 274 274 275 275 275 276 280 284 286 279 277 279 280 283 283 284 283 283 282 282 281 279 276 278 279 281 282 281 281 280 277 275 275 275 274 273 271 271 271 271 271 272 276 278 279 279 276 272 271 273 269 268 264 267 267 268 270 267 269
nan nan nan nan nan nan nan nan nan nan nan nan nan nan nan nan 278 279 278 275 274 277 278 278 275 267 268 273 266 276 269 272 266 269 274 263 252 266 277 277 275 275 273 275 273 276 275 277 277 277 279 280 281 282 284 283 282 280 278 277 278 279 281 282 282 281 279 277 275 274 275 275 274 273 270 270 271 273 274 275 274 275 276 275 278 277 273 278 279 279 280 271 275 277 274 272 270
nan nan nan nan nan nan nan nan nan nan nan nan nan nan nan nan 282 283 281 275 274 275 279 277 274 272 263 261 265 271 269 276 269 269 279 269 255 266 281 276 274 274 276 280 283 281 278 275 276 276 278 280 280 280 283 284 280 279 280 279 279 281 283 282 281 278 275 273 272 272 272 272 271 269 268 269 271 273 275 276 276 273 273 272 270 272 274 273 279 286 290 291 288 285 279 277 274
nan nan nan nan nan nan nan nan nan nan nan nan nan nan nan 280 283 284 279 276 272 272 266 277 266 278 275 263 264 271 259 272 272 269 274 275 275 276 277 277 274 277 284 280 279 276 276 276 277 277 279 281 281 283 282 282 281 280 280 281 280 282 283 282 279 275 272 271 271 272 272 271 268 265 265 267 270 273 275 274 274 272 270 268 266 267 268 270 272 278 280 278 277 275 280 278 276
nan nan nan nan nan nan nan nan nan nan nan nan nan nan nan 279 280 281 279 279 273 271 268 266 271 280 277 277 272 264 259 268 272 272 274 280 283 284 280 279 274 279 283 283 279 275 274 279 279 280 281 283 284 283 281 279 280 280 280 279 280 283 283 280 275 272 271 272 273 275 274 273 270 267 265 266 269 273 274 274 274 274 271 265 263 264 266 267 269 271 271 271 274 272 274 277 274
nan nan nan nan nan nan nan nan nan nan nan nan nan nan 280 281 280 280 278 277 275 272 270 267 263 262 269 271 270 262 261 261 269 270 271 273 276 277 278 286 281 281 284 284 281 276 276 276 277 278 278 280 282 281 279 275 274 273 274 277 281 285 284 277 272 271 272 273 274 274 274 273 272 268 265 266 268 271 273 273 274 274 273 270 269 269 268 269 270 270 272 274 275 276 275 278 276
nan nan nan nan nan nan nan nan nan nan nan nan nan 273 273 276 275 276 276 274 272 272 272 265 263 271 270 270 265 270 268 272 272 275 275 273 272 276 290 294 289 288 285 284 281 284 279 275 275 274 274 275 274 272 270 269 270 274 277 284 289 288 282 276 272 273 273 273 271 269 269 270 271 269 267 266 268 270 273 274 275 275 274 274 274 272 271 271 271 272 275 278 281 285 285 285 287
nan nan nan nan nan nan nan nan nan nan nan nan nan 285 282 279 279 275 270 272 267 270 269 269 263 268 276 267 273 264 267 271 272 271 269 273 274 282 289 291 291 289 285 284 284 281 277 273 271 273 274 276 275 275 275 277 279 282 286 290 288 285 283 280 278 277 275 273 271 270 272 272 270 267 266 267 269 271 272 273 272 273 274 274 273 274 273 271 271 271 274 282 290 292 298 296 293
nan nan nan nan nan nan nan nan nan nan nan nan 286 281 280 280 276 275 272 264 266 264 269 269 276 270 270 266 263 265 268 268 266 264 275 278 284 284 287 288 289 289 288 284 281 278 276 274 272 270 272 273 274 274 276 279 281 286 292 292 286 283 284 286 285 282 281 279 275 273 272 273 269 266 265 266 267 266 268 266 265 266 265 266 266 266 264 267 268 276 278 280 286 296 296 297 290
nan nan nan nan nan nan nan nan nan nan nan nan 286 281 280 280 275 274 274 271 268 269 263 259 263 263 270 270 267 272 274 262 263 264 269 277 283 280 282 289 291 287 280 280 278 277 277 280 281 280 277 273 272 272 276 279 282 285 288 288 281 283 286 286 288 286 281 280 278 275 276 273 270 269 265 264 267 265 264 265 264 261 259 259 259 259 259 259 264 264 272 279 284 292 295 297 293
nan nan nan nan nan nan nan nan nan nan nan nan 280 276 275 276 273 265 264 264 264 264 264 254 260 264 273 266 267 270 267 261 267 270 272 275 277 278 284 290 289 279 276 276 278 278 280 284 286 286 286 289 280 274 276 281 282 280 280 285 287 289 294 295 290 288 287 283 284 280 275 272 269 268 266 266 267 265 261 259 257 255 255 254 254 255 258 262 263 267 268 273 280 285 294 293 293
nan nan nan nan nan nan nan nan nan nan nan 277 273 278 276 272 269 260 261 264 261 254 254 249 255 258 262 269 262 258 260 264 267 268 270 272 270 279 290 289 281 271 268 273 275 281 285 290 293 293 292 287 287 290 279 274 277 276 278 285 292 293 291 294 291 285 282 279 278 276 272 267 265 271 266 262 260 258 257 253 248 247 248 248 248 250 254 260 264 271 276 282 284 290 290 299 294
nan nan nan nan nan nan nan nan nan nan nan 279 274 280 278 271 267 265 257 255 259 249 249 252 246 257 261 262 263 258 262 266 269 270 270 267 268 281 287 282 273 269 270 272 276 282 286 292 294 294 288 283 284 283 283 279 274 277 278 280 279 278 275 277 269 261 263 257 263 269 275 275 275 268 271 260 254 251 251 260 248 250 254 254 253 255 262 269 276 288 298 302 313 310 312 312 316
nan nan nan nan nan nan nan nan nan nan 279 275 278 281 284 276 268 266 261 248 260 253 243 252 242 242 250 256 264 263 267 267 268 269 270 270 272 279 282 275 267 265 271 271 275 279 282 286 292 292 285 279 280 284 284 287 283 278 281 284 279 277 272 272 266 258 255 250 268 266 286 296 291 278 273 272 267 265 262 261 257 256 258 260 261 265 272 276 283 289 293 307 308 323 323 335 332
nan nan nan nan nan nan nan nan nan nan 275 279 288 296 294 287 275 265 264 264 262 253 249 241 244 243 248 254 260 263 264 267 271 274 274 276 278 279 278 271 264 264 262 257 268 281 280 283 284 289 283 278 281 297 304 300 302 329 317 304 292 275 267 266 270 288 299 281 269 280 316 285 285 284 286 288 294 283 263 271 270 270 276 281 283 281 283 284 280 286 286 291 307 310 339 336 338
nan nan nan nan nan nan nan nan nan 273 nan 288 298 298 299 295 280 272 273 268 259 256 253 250 248 248 251 247 254 258 261 266 271 274 274 274 274 274 265 255 253 256 255 255 270 279 281 284 280 280 290 286 303 320 326 323 318 320 299 300 275 293 275 290 276 254 258 267 295 288 271 274 279 283 290 290 307 306 295 281 286 287 282 286 295 291 287 284 283 278 282 287 307 330 347 330 321
nan nan nan nan nan 268 265 269 275 285 279 282 288 290 295 279 279 279 279 274 265 260 252 252 253 249 244 255 259 259 261 263 266 268 270 270 268 261 250 247 249 254 251 259 273 272 274 282 278 283 289 302 316 325 336 321 307 315 298 308 335 299 273 259 254 254 247 250 247 254 264 271 266 275 276 296 318 305 301 295 302 302 293 284 292 319 306 290 311 306 295 301 344 28 351 285 283
nan nan nan nan 267 278 270 274 273 278 282 289 288 283 284 277 291 282 261 273 275 265 255 259 248 242 254 254 255 255 256 259 260 265 267 266 262 252 243 244 246 246 247 257 270 268 274 278 276 283 295 311 326 327 347 322 286 180 135 148 227 265 249 239 236 220 228 222 229 216 216 210 255 320 321 335 342 334 326 323 321 324 316 297 280 317 334 309 16 359 344 36 31 262 242 238 221
nan nan nan 270 281 297 277 276 272 279 283 285 278 281 290 284 284 286 294 282 278 264 245 237 247 253 253 252 255 252 254 256 262 266 266 262 252 242 240 239 240 244 251 262 269 275 280 279 282 288 302 313 325 328 356 161 141 114 142 161 188 213 208 187 176 182 177 162 163 147 166 152 313 310 306 312 312 312 310 310 315 310 305 291 278 285 277 265 285 230 292 23 256 274 239 217 213
nan 274 275 284 301 296 286 281 279 284 288 289 290 299 284 260 272 249 248 259 255 259 266 258 255 249 262 265 254 252 258 262 266 268 263 254 247 243 241 244 250 250 258 262 268 279 277 278 281 293 301 302 302 301 253 143 130 149 160 153 156 160 155 152 146 143 146 152 144 150 126 291 291 293 294 296 301 303 302 301 307 308 299 285 259 267 249 244 232 250 248 235 250 282 249 256 253
316 293 289 287 291 292 289 286 280 299 298 303 296 293 284 295 296 289 296 284 276 256 268 257 250 240 245 244 246 250 256 257 259 259 254 249 244 240 246 248 255 260 268 271 277 274 276 280 282 287 294 293 276 269 294 190 164 160 156 157 150 149 151 150 150 147 158 169 177 205 260 286 289 292 291 291 289 293 293 294 304 305 289 274 nan nan nan 269 269 278 271 266 270 277 276 245 227
293 296 292 279 282 287 291 283 291 289 295 288 291 300 309 314 316 292 301 296 272 245 265 267 248 242 239 241 242 248 250 253 251 245 239 238 237 237 239 247 252 264 266 270 269 275 279 286 282 310 313 304 295 271 243 213 170 157 157 nan nan 162 159 161 161 171 201 251 246 272 278 284 285 284 285 287 286 288 287 nan nan nan nan nan nan nan nan nan nan nan nan 279 nan 268 271 260 241
305 302 292 284 280 282 283 279 281 291 291 303 322 321 308 297 272 286 281 254 261 272 262 240 228 235 236 241 244 245 246 243 238 231 225 227 233 233 234 248 262 263 267 262 261 267 274 290 310 300 289 263 252 242 212 181 167 nan nan nan nan nan nan nan nan nan nan 282 271 269 272 277 280 282 280 282 284 nan nan nan nan nan nan nan nan nan nan nan nan nan nan nan nan nan nan nan nan
292 294 303 298 289 284 277 281 274 282 304 323 330 301 298 294 298 254 278 267 274 274 246 234 221 232 236 231 235 236 234 230 227 224 224 229 237 252 263 259 257 258 263 277 253 246 261 287 279 267 255 249 251 203 179 169 nan nan nan nan nan nan nan nan nan nan nan nan nan 276 nan 278 281 280 nan nan nan nan nan nan nan nan nan nan nan nan nan nan nan nan nan nan nan nan nan nan nan
315 308 308 306 296 284 264 266 286 307 307 1 348 328 306 261 112 nan 260 290 294 263 237 212 203 213 220 223 226 224 225 223 222 225 234 238 244 246 258 258 255 264 277 266 246 250 265 274 267 261 261 261 219 191 nan nan nan nan nan nan nan nan nan nan nan nan nan nan nan nan nan nan nan nan nan nan nan nan nan nan nan nan nan nan nan nan nan nan nan nan nan nan nan nan nan nan nan
312 316 313 311 314 297 306 317 349 20 317 358 337 340 342 349 244 nan 268 275 280 261 221 190 207 219 220 223 222 218 221 224 228 237 248 254 250 257 258 257 265 270 269 265 264 271 274 268 265 262 261 235 203 nan nan nan nan nan nan nan nan nan nan nan nan nan nan nan nan nan nan nan nan nan nan nan nan nan nan nan nan nan nan nan nan nan nan nan nan nan nan nan nan nan nan nan nan
331 349 339 332 360 351 23 115 36 45 325 7 151 nan 346 nan 206 239 253 255 263 260 240 216 207 201 216 222 221 221 229 233 229 236 232 230 238 234 247 252 258 264 262 270 273 272 268 266 266 271 262 nan nan nan nan nan nan nan nan nan nan nan nan nan nan nan nan nan nan nan nan nan nan nan nan nan nan nan nan nan nan nan nan nan nan nan nan nan nan nan nan nan nan nan nan nan nan
12 37 9 9 16 6 10 33 44 14 334 49 nan 45 114 267 nan 170 274 232 226 211 236 256 199 205 211 219 225 226 229 226 234 231 236 238 240 240 248 250 253 259 279 280 278 272 265 263 267 261 nan nan nan nan nan nan nan nan nan nan nan nan nan nan nan nan nan nan nan nan nan nan nan nan nan nan nan nan nan nan nan nan nan nan nan nan nan nan nan nan nan nan nan nan nan nan nan
43 25 53 55 44 20 5 63 61 38 4 53 353 84 16 305 242 277 161 156 282 236 219 222 239 226 225 235 232 224 218 223 234 236 233 231 230 243 261 268 268 275 nan nan nan 272 270 262 247 167 nan nan nan nan nan nan nan nan nan nan nan nan nan nan nan nan nan nan nan nan nan nan nan nan nan nan nan nan nan nan nan nan nan nan nan nan nan nan nan nan nan nan nan nan nan nan nan
12 56 43 47 74 9 8 58 92 91 3 47 45 nan 351 279 270 216 139 153 158 254 237 237 236 215 212 232 241 236 230 229 233 233 229 228 244 265 272 271 278 nan nan nan nan nan nan 195 160 163 nan nan nan nan nan nan nan nan nan nan nan nan nan nan nan nan nan nan nan nan nan nan nan nan nan nan nan nan nan nan nan nan nan nan nan nan nan nan nan nan nan nan nan nan nan nan nan
16 63 77 69 72 5 24 41 63 107 81 14 87 nan nan nan 256 176 145 79 39 278 255 224 210 205 210 229 227 236 253 239 233 228 232 241 263 274 nan 279 nan nan nan nan nan nan nan 155 nan nan nan nan nan nan nan nan nan nan nan nan nan nan nan nan nan nan nan nan nan nan nan nan nan nan nan nan nan nan nan nan nan nan nan nan nan nan nan nan nan nan nan nan nan nan nan nan nan
17 91 93 112 84 37 41 12 51 56 110 103 nan 99 nan 346 338 224 101 96 37 344 303 250 184 211 250 247 248 275 257 259 252 243 257 nan nan nan nan nan nan nan nan nan nan nan nan nan nan nan nan nan nan nan nan nan nan nan nan nan nan nan nan nan nan nan nan nan nan nan nan nan nan nan nan nan nan nan nan nan nan nan nan nan nan nan nan nan nan nan nan nan nan nan nan nan nan
126 73 37 17 22 134 243 53 349 83 57 99 79 125 27 11 345 10 41 58 59 2 356 1 319 313 288 277 292 294 276 269 261 286 285 281 nan nan nan nan nan nan nan nan nan nan nan nan nan nan nan nan nan nan nan nan nan nan nan nan nan nan nan nan nan nan nan nan nan nan nan nan nan nan nan nan nan nan nan nan nan nan nan nan nan nan nan nan nan nan nan nan nan nan nan nan nan
217 117 177 351 nan nan 321 309 320 105 81 106 126 117 40 nan 26 8 17 36 45 8 7 4 347 347 309 301 296 279 310 275 284 nan nan nan nan nan nan nan nan nan nan nan nan nan nan nan nan nan nan nan nan nan nan nan nan nan nan nan nan nan nan nan nan nan nan nan nan nan nan nan nan nan nan nan nan nan nan nan nan nan nan nan nan nan nan nan nan nan nan nan nan nan nan nan nan
342 327 29 295 309 310 308 297 296 112 89 156 147 273 16 38 38 10 5 23 23 12 11 9 7 6 342 322 356 326 304 296 298 nan nan nan nan nan nan nan nan nan nan nan nan nan nan nan nan nan nan nan nan nan nan nan nan nan nan nan nan nan nan nan nan nan nan nan nan nan nan nan nan nan nan nan nan nan nan nan nan nan nan nan nan nan nan nan nan nan nan nan nan nan nan nan nan
44 340 4 5 75 308 300 313 314 171 114 305 104 20 320 32 30 7 3 23 23 18 14 16 16 18 21 359 343 314 294 295 nan nan nan nan nan nan nan nan nan nan nan nan nan nan nan nan nan nan nan nan nan nan nan nan nan nan nan nan nan nan nan nan nan nan nan nan nan nan nan nan nan nan nan nan nan nan nan nan nan nan nan nan nan nan nan nan nan nan nan nan nan nan nan nan nan
44 51 13 16 277 295 316 352 68 111 99 305 48 54 260 199 38 4 27 39 42 40 34 33 32 26 32 21 346 328 324 323 328 nan nan nan nan nan nan nan nan nan nan nan nan nan nan nan nan nan nan nan nan nan nan nan nan nan nan nan nan nan nan nan nan nan nan nan nan nan nan nan nan nan nan nan nan nan nan nan nan nan nan nan nan nan nan nan nan nan nan nan nan nan nan nan nan
55 36 72 191 343 59 11 20 70 87 112 68 55 76 227 148 106 40 62 69 67 61 54 51 55 36 24 18 1 346 336 334 nan 337 nan nan nan nan nan nan nan nan nan nan nan nan nan nan nan nan nan nan nan nan nan nan nan nan nan nan nan nan nan nan nan nan nan nan nan nan nan nan nan nan nan nan nan nan nan nan nan nan nan nan nan nan nan nan nan nan nan nan nan nan nan nan nan
45 106 69 20 32 73 119 21 57 71 69 82 58 80 57 55 42 52 45 61 70 57 54 57 53 58 41 19 10 358 347 345 341 338 nan nan nan nan nan nan nan nan nan nan nan nan nan nan nan nan nan nan nan nan nan nan nan nan nan nan nan nan nan nan nan nan nan nan nan nan nan nan nan nan nan nan nan nan nan nan nan nan nan nan nan nan nan nan nan nan nan nan nan nan nan nan nan
358 83 154 235 5 68 43 26 48 59 58 60 74 72 61 26 39 39 22 39 48 41 48 46 39 37 38 32 20 1 354 341 347 340 326 nan nan nan nan nan nan nan nan nan nan nan nan nan nan nan nan nan nan nan nan nan nan nan nan nan nan nan nan nan nan nan nan nan nan nan nan nan nan nan nan nan nan nan nan nan nan nan nan nan nan nan nan nan nan nan nan nan nan nan nan nan nan
24 327 18 348 342 11 36 46 78 109 123 61 78 105 81 34 35 34 20 33 36 31 41 39 32 28 25 26 13 360 354 339 340 333 324 322 nan nan nan nan nan nan nan nan nan nan nan nan nan nan nan nan nan nan nan nan nan nan nan nan nan nan nan nan nan nan nan nan nan nan nan nan nan nan nan nan nan nan nan nan nan nan nan nan nan nan nan nan nan nan nan nan nan nan nan nan nan
288 335 1 353 344 351 27 74 107 133 104 68 82 94 115 50 20 19 15 26 27 25 28 31 26 24 17 14 6 358 352 341 331 330 321 320 nan nan nan nan nan nan nan nan nan nan nan nan nan nan nan nan nan nan nan nan nan nan nan nan nan nan nan nan nan nan nan nan nan nan nan nan nan nan nan nan nan nan nan nan nan nan nan nan nan nan nan nan nan nan nan nan nan nan nan nan nan
286 340 354 345 349 353 34 103 119 146 90 13 27 64 69 13 304 357 359 16 22 23 22 21 21 16 12 9 3 358 355 340 333 326 322 320 nan nan nan nan nan nan nan nan nan nan nan nan nan nan nan nan nan nan nan nan nan nan nan nan nan nan nan nan nan nan nan nan nan nan nan nan nan nan nan nan nan nan nan nan nan nan nan nan nan nan nan nan nan nan nan nan nan nan nan nan nan
311 329 336 321 340 3 41 82 87 68 78 262 244 82 103 307 318 340 355 22 20 21 19 16 11 9 6 4 1 357 353 340 335 331 324 318 nan nan nan nan nan nan nan nan nan nan nan nan nan nan nan nan nan nan nan nan nan nan nan nan nan nan nan nan nan nan nan nan nan nan nan nan nan nan nan nan nan nan nan nan nan nan nan nan nan nan nan nan nan nan nan nan nan nan nan nan nan
318 334 326 337 355 11 26 86 89 57 40 255 268 51 99 47 309 331 349 4 22 13 6 7 3 1 1 356 357 354 352 338 332 333 324 317 319 nan nan nan nan nan nan nan nan nan nan nan nan nan nan nan nan nan nan nan nan nan nan nan nan nan nan nan nan nan nan nan nan nan nan nan nan nan nan 313 307 nan nan nan nan nan nan nan nan nan nan nan nan nan nan nan nan nan nan nan nan
342 348 357 355 11 8 31 37 47 64 285 264 259 89 49 89 303 324 338 333 346 356 350 355 1 359 355 351 355 357 350 338 333 336 327 318 318 nan nan nan nan nan nan nan nan nan nan nan nan nan nan nan nan nan nan nan nan nan nan nan nan nan nan nan nan nan nan nan nan nan nan nan nan nan nan 317 312 nan nan nan nan nan nan nan nan nan nan nan nan nan nan nan nan nan nan nan nan
31 11 33 64 20 24 nan 15 nan 242 225 238 207 311 355 44 217 282 328 342 340 347 335 341 1 4 358 354 356 353 344 341 335 333 324 318 320 329 nan nan nan nan nan nan nan nan nan nan nan nan nan nan nan nan nan nan nan nan nan nan nan nan nan nan nan nan nan nan nan nan nan nan nan nan 323 nan nan nan nan nan nan nan nan nan nan nan nan nan nan nan nan nan nan nan nan nan nan
29 37 62 82 97 nan nan 298 325 315 300 267 256 292 119 248 298 297 318 332 342 343 351 354 359 7 2 358 356 351 345 343 337 331 324 319 320 329 nan nan nan nan nan nan nan nan nan nan nan nan nan nan nan nan nan nan nan nan nan nan nan nan nan nan nan nan nan nan nan nan nan nan nan nan nan nan nan nan nan nan nan nan nan nan nan nan nan nan nan nan nan nan nan nan nan nan nan
18 107 nan 146 140 152 nan 190 nan 239 237 280 288 18 222 nan 289 271 281 294 307 333 354 2 13 9 4 2 359 353 349 347 342 334 328 319 324 333 345 nan nan nan nan nan nan nan nan nan nan nan nan nan nan nan nan nan nan nan nan nan nan nan nan nan nan nan nan nan nan nan nan nan nan nan nan nan nan nan nan nan nan nan nan nan nan nan nan nan nan nan nan nan nan nan nan nan nan
317 106 120 106 185 179 169 204 194 203 222 323 306 240 224 243 321 302 310 320 341 337 354 1 1 7 0 5 3 355 351 350 347 342 337 331 332 340 348 358 nan nan nan nan nan nan nan nan nan nan nan nan nan nan nan nan nan nan nan nan nan nan nan nan nan nan nan nan nan nan nan nan nan nan nan nan nan nan nan nan nan nan nan nan nan nan nan nan nan nan nan nan nan nan nan nan nan
308 20 359 226 198 150 202 7 215 180 38 nan nan 335 303 309 307 295 317 345 342 327 333 348 353 353 354 5 1 356 352 350 351 347 348 343 341 347 349 354 nan nan nan nan nan nan nan nan nan nan nan nan nan nan nan nan nan nan nan nan nan nan nan nan nan nan nan nan nan nan nan nan nan nan nan nan nan nan nan nan nan nan nan nan nan nan nan nan nan nan nan nan nan nan nan nan nan
322 12 295 278 nan 158 172 187 287 21 227 nan nan nan nan 285 292 312 308 319 320 323 323 336 339 341 347 354 357 357 355 351 350 351 349 350 349 348 350 351 nan nan nan nan nan nan nan nan nan nan nan nan nan nan nan nan nan nan nan nan nan nan nan nan nan nan nan nan nan 342 340 nan nan nan nan nan nan nan nan nan nan nan nan nan nan nan nan nan nan nan nan nan nan nan nan nan nan
96 239 294 34 295 22 309 nan nan nan nan nan nan nan 278 nan 268 292 309 315 314 317 320 327 336 339 344 347 355 358 354 348 348 350 346 347 350 344 348 348 nan nan nan nan nan nan nan nan nan nan nan nan nan nan nan nan nan nan nan nan nan 353 nan nan nan nan nan nan nan 340 nan nan nan nan nan nan nan nan nan nan nan nan nan nan nan nan nan nan nan nan nan nan nan nan nan nan nan
nan nan 360 310 nan 202 240 241 nan 156 nan nan nan nan nan nan nan nan 289 314 316 319 323 332 335 336 335 339 347 352 354 351 350 349 342 342 347 344 343 346 nan nan nan nan nan nan nan nan nan nan nan nan nan nan nan nan nan nan nan nan nan 352 352 nan 349 346 nan nan nan nan nan nan nan nan nan nan nan nan nan nan nan nan nan nan nan nan nan nan nan nan nan nan nan nan nan nan nan
334 358 338 320 283 244 nan nan nan nan nan nan nan nan nan nan nan nan nan 306 323 326 326 324 327 327 330 332 338 344 347 348 350 344 339 341 344 342 338 346 nan nan nan nan nan nan nan nan nan nan nan nan nan nan nan nan nan nan nan 353 349 351 351 348 344 342 nan 340 nan nan nan nan nan nan nan nan nan nan nan nan nan nan nan nan nan nan nan nan nan nan nan nan nan nan nan nan nan
279 293 324 309 308 343 344 nan nan nan nan nan nan nan nan nan nan 290 297 307 319 328 319 318 322 321 322 324 331 333 331 341 348 341 338 338 339 339 340 347 nan nan nan nan nan nan nan nan nan nan nan nan nan nan nan nan 354 353 357 353 353 350 349 345 342 342 341 339 nan nan nan nan nan nan nan nan nan nan nan nan nan nan nan nan nan nan nan nan nan nan nan nan nan nan nan nan nan